KOMPSAT 3A

Last updated on Thu Jun 22 2017 00:17:34 GMT+0000 (Coordinated Universal Time)

1 40536U 15014A 17172.52874755 .00000278 00000-0 19815-4 0 9995 2 40536 97.4808 112.1977 0009976 333.6117 137.5261 15.12203210123704
UTC large
Height (km)
Speed (km/s)
/
Latitude / Longitude
Inclination (degrees)
Orbital Period (minutes)
Azimuth
Elevation
Range (km)
Doppler Factor

Next 0 passes for location: London (51.5072 / 0.1276)

Sorry there are no passes over London.